Tracking 18945 objects as of 19-Jan-2018
HD Live streaming from Space Station
objects crossing your sky now

FENGYUN 1C DEB

Track FENGYUN 1C DEB now!
10-day predictions


NORAD ID: 31018
Int'l Code: 1999-025BDL
Perigee: 837.8 km
Apogee: 938.2 km
Inclination: 99.2 °
Period: 102.6 minutes
Semi major axis: 7258 km
RCS: 0.0147 m2 (small)
Launch date: May 10, 1999
Source: People's Republic of China (PRC)
Launch site: Taiyaun Space Center, China (TSC)

Note: This is SATELLITE DEBRIS
aabbcc
Your satellite tracking list
Your tracking list is empty




NASA's NSSDC Master Catalog

Two Line Element Set (TLE):
1 31018U 99025BDL 18018.71845333 +.00000720 +00000-0 +47677-3 0  9993
2 31018 099.2081 046.0543 0069152 245.0233 179.3449 14.03745001554778
Source of the keplerian elements: AFSPC